Regional Weather Roundup
Issued by NWS

Home | Current Version | Previous Version | Graphics & Text | Print | Product List | Glossary On
Versions: 1 2 3 4 5 6 7 8 9 10 11 12 13 14 15 16 17 18 19 20 21 22 23 24 25 26 27 28 29 30 31 32 33 34 35 36 37 38 39 40 41 42 43 44 45 46 47 48 49 50
000
ASUS44 KMEG 200110
RWRTN
TENNESSEE HOURLY STATE WEATHER ROUNDUP
NATIONAL WEATHER SERVICE MEMPHIS TN
800 PM CDT FRI SEP 19 2014

TNZ002-004-019-021-049-052-054-088>092-200200-
WEST TENNESSEE

CITY           SKY/WX    TMP DP  RH WIND       PRES   REMARKS
MEMPHIS INTL   PTCLDY    79  66  64 CALM      30.00R
NWS MEMPHIS      N/A     74 N/A N/A MISG        N/A
JACKSON        CLEAR     71  69  93 CALM      30.01S
DYERSBURG      CLEAR     72  59  64 CALM      30.01S
UNION CITY     CLEAR     68  64  88 CALM      30.00S
PARIS          CLEAR     64  63  94 CALM      30.03S
HUNTINGDON     CLEAR     68  64  86 CALM      30.02R
LEXINGTON      CLEAR     70  70 100 CALM      30.02R
SAVANNAH       CLEAR     72  72 100 CALM      30.02R
$$

TNZ008-025-027-028-033-062-065-066-200200-
NORTH MIDDLE TENNESSEE

CITY           SKY/WX    TMP DP  RH WIND       PRES   REMARKS
NASHVILLE      CLEAR     77  64  64 E3        30.03R
DICKSON        CLEAR     70  66  88 CALM      30.04R
PORTLAND       CLEAR     68  64  88 CALM      30.04R
CLARKSVILLE    CLEAR     73  61  65 CALM      30.02R
LEBANON        CLEAR     73  64  73 CALM      30.03R
SMYRNA         PTCLDY    74  66  75 CALM      30.04R
MURFREESBORO   CLEAR     76  66  71 CALM      30.03
COOKEVILLE     CLEAR     66  64  94 CALM      30.07R
GALLATIN       CLEAR     72  65  78 NE3       30.05R
CROSSVILLE     CLEAR     68  62  81 CALM      30.13R
$$

TNZ061-075-076-078-094-096-097-200200-
SOUTH MIDDLE TENNESSEE

CITY           SKY/WX    TMP DP  RH WIND       PRES   REMARKS
LEWISBURG      CLEAR     70  67  90 CALM      30.03R
FAYETTEVILLE   PTCLDY    73  64  73 SE7       30.06R
TULLAHOMA      CLEAR     75  64  69 SE5       30.08R
WINCHESTER     CLEAR     72  64  78 SE6       30.07S
MCMINNVILLE    CLEAR     70  70 100 CALM      30.07R
COLUMBIA       PTCLDY    73  73 100 CALM      30.02R
SHELBYVILLE    CLEAR     73  68  83 SE5       30.05S
$$

TNZ017-018-042-046-047-200200-
NORTHEAST TENNESSEE

CITY           SKY/WX    TMP DP  RH WIND       PRES   REMARKS
TRI CITIES     PTCLDY    69  54  58 E3        30.18R
ELIZABETHTON   CLEAR     66  54  63 E9        30.20R
$$

TNZ012-013-036-069-073-074-200200-
CENTRAL EAST TENNESSEE

CITY           SKY/WX    TMP DP  RH WIND       PRES   REMARKS
KNOXVILLE      MOCLDY    72  66  81 CALM      30.09R
OAK RIDGE      CLOUDY    75  66  73 E3        30.11R
GATLINBURG     CLOUDY    72  61  68 E5        30.11R
MORRISTOWN     CLEAR     70  61  73 SE6       30.13R
$$

TNZ083-085-099-200200-
SOUTHEAST TENNESSEE

CITY           SKY/WX    TMP DP  RH WIND       PRES   REMARKS
CHATTANOOGA    MOCLDY    77  63  61 CALM      30.08R
$$

SKY/WX REPORTED AS FAIR MEANS FEW OR NO CLOUDS BELOW
12 THOUSAND FEET.




USA.gov is the U.S. government's official web portal to all federal, state and local government web resources and services.